Weather History for O'Neill, NE

Change the Weather History Date:

Friday, October 11, 2013

  Actual Average Record
Temperature  
Mean Temperature 58 °F -  
Max Temperature 68 °F 65 °F 87 °F (1956)
Min Temperature 49 °F 37 °F 26 °F (1959)
Degree Days  
Heating Degree Days 6    
Growing Degree Days 8 (Base 50)    
Moisture  
Dew Point 45 °F    
Average Humidity 59    
Maximum Humidity 75    
Minimum Humidity 42    
Precipitation  
Precipitation 0.00 in - - ()
Sea Level Pressure  
Sea Level Pressure 29.63 in    
Wind  
Wind Speed 21 mph (SW)    
Max Wind Speed 28 mph    
Max Gust Speed 43 mph    
Visibility 10 miles    
Events Rain    
Averages and records for this station are not official NWS values.
T = Trace of Precipitation, MM = Missing Value Source: NWS Daily Summary

Daily Weather History Graph

Daily Weather History Graph

Search for Another Location

Airport:

Trip Planner

Search our weather history database for the weather conditions in past years. The results will help you decide how hot, cold, wet, or windy it might be!

Date:

Astronomy

Oct. 11, 2013 Rise Set
Actual Time 7:43 AM CDT 6:58 PM CDT
Civil Twilight 7:15 AM CDT 7:26 PM CDT
Nautical Twilight 6:42 AM CDT 7:59 PM CDT
Astronomical Twilight 6:09 AM CDT 8:31 PM CDT
Moon 2:30 PM CDT (10/11) No Moon Set
Length of Visible Light 12h 11m
Length of Day
11h 15m
Waxing Crescent, 47% of the Moon is Illuminated
Oct 11
Waxing Crescent
Oct 11
First Quarter
Oct 18
Full
Oct 26
Last Quarter
Nov 3
New

Hourly Weather History & Observations

Time (CDT) Temp. Dew Point Humidity Pressure Visibility Wind Dir Wind Speed Gust Speed Precip Events Conditions
12:15 AM 68.2 °F 55.6 °F 64% 29.66 in 10.0 mi SSE 25.3 mph 32.2 mph N/A   Scattered Clouds
12:35 AM 68.0 °F 55.8 °F 65% 29.65 in 10.0 mi SSE 20.7 mph 35.7 mph N/A   Scattered Clouds
12:55 AM 67.3 °F 55.8 °F 66% 29.64 in 10.0 mi SSE 20.7 mph 28.8 mph N/A   Clear
1:15 AM 67.3 °F 55.8 °F 66% 29.65 in 10.0 mi SSE 20.7 mph 29.9 mph N/A   Scattered Clouds
1:55 AM 66.9 °F 51.6 °F 58% 29.65 in 10.0 mi SSW 18.4 mph 27.6 mph N/A   Overcast
2:15 AM 66.0 °F 51.1 °F 59% 29.65 in 10.0 mi South 21.9 mph 28.8 mph N/A   Overcast
2:35 AM 65.3 °F 50.9 °F 60% 29.62 in 10.0 mi South 19.6 mph 29.9 mph N/A   Mostly Cloudy
2:55 AM 64.8 °F 50.4 °F 60% 29.61 in 10.0 mi SSE 20.7 mph 33.4 mph N/A   Clear
3:15 AM 62.2 °F 52.2 °F 70% 29.58 in 10.0 mi SSE 23.0 mph 34.5 mph N/A Rain Light Rain
3:35 AM 61.7 °F 52.7 °F 72% 29.54 in 10.0 mi SE 17.3 mph 21.9 mph N/A Rain Light Rain
3:55 AM 62.6 °F 52.0 °F 68% 29.53 in 10.0 mi SE 19.6 mph 31.1 mph N/A   Mostly Cloudy
4:15 AM 62.6 °F 52.0 °F 68% 29.51 in 10.0 mi SE 21.9 mph 29.9 mph N/A   Mostly Cloudy
4:35 AM 63.7 °F 51.8 °F 65% 29.51 in 10.0 mi SSE 24.2 mph 35.7 mph N/A   Mostly Cloudy
4:55 AM 63.1 °F 52.2 °F 67% 29.49 in 10.0 mi SSE 21.9 mph 35.7 mph N/A   Scattered Clouds
5:15 AM 63.9 °F 51.8 °F 65% 29.50 in 10.0 mi SSE 23.0 mph 32.2 mph N/A   Clear
5:35 AM 63.5 °F 52.0 °F 66% 29.51 in 10.0 mi South 19.6 mph 32.2 mph N/A   Clear
5:55 AM 62.6 °F 52.2 °F 69% 29.52 in 10.0 mi South 20.7 mph 27.6 mph N/A   Scattered Clouds
6:15 AM 62.1 °F 52.9 °F 72% 29.52 in 10.0 mi SSE 26.5 mph 32.2 mph N/A   Mostly Cloudy
6:35 AM 61.7 °F 52.7 °F 72% 29.51 in 10.0 mi South 23.0 mph 38.0 mph N/A   Mostly Cloudy
6:55 AM 60.8 °F 52.9 °F 75% 29.50 in 10.0 mi South 23.0 mph 32.2 mph N/A   Scattered Clouds
7:15 AM 61.3 °F 52.9 °F 74% 29.50 in 10.0 mi South 24.2 mph 32.2 mph N/A   Mostly Cloudy
7:35 AM 61.7 °F 52.9 °F 73% 29.50 in 10.0 mi South 20.7 mph 31.1 mph N/A   Mostly Cloudy
7:55 AM 60.8 °F 52.0 °F 73% 29.48 in 10.0 mi South 23.0 mph 32.2 mph N/A   Mostly Cloudy
8:15 AM 60.4 °F 51.8 °F 73% 29.49 in 10.0 mi South 20.7 mph 28.8 mph N/A   Clear
8:35 AM 61.2 °F 52.0 °F 72% 29.49 in 10.0 mi South 26.5 mph 33.4 mph N/A   Clear
8:55 AM 61.9 °F 51.4 °F 69% 29.48 in 10.0 mi South 23.0 mph 32.2 mph N/A   Clear
9:15 AM 62.6 °F 52.0 °F 68% 29.47 in 10.0 mi South 21.9 mph 33.4 mph N/A   Clear
9:35 AM 63.0 °F 51.1 °F 65% 29.48 in 10.0 mi South 27.6 mph 36.8 mph N/A   Clear
9:55 AM 63.7 °F 49.8 °F 61% 29.48 in 10.0 mi South 27.6 mph 36.8 mph N/A   Clear
10:15 AM 64.4 °F 48.6 °F 56% 29.48 in 10.0 mi South 26.5 mph 42.6 mph N/A   Clear
10:35 AM 65.1 °F 45.3 °F 49% 29.49 in 10.0 mi SSW 24.2 mph 36.8 mph N/A   Scattered Clouds
10:55 AM 64.6 °F 41.0 °F 42% 29.48 in 10.0 mi SSW 26.5 mph 41.4 mph N/A   Scattered Clouds
11:15 AM 61.3 °F 41.2 °F 48% 29.49 in 10.0 mi SSW 27.6 mph 34.5 mph N/A   Mostly Cloudy
11:35 AM 64.6 °F 42.3 °F 44% 29.49 in 10.0 mi SSW 25.3 mph 33.4 mph N/A   Scattered Clouds
11:55 AM 65.3 °F 42.8 °F 44% 29.49 in 10.0 mi SSW 19.6 mph 34.5 mph N/A   Clear
12:15 PM 64.6 °F 43.2 °F 46% 29.49 in 10.0 mi SSW 25.3 mph 32.2 mph N/A   Clear
12:35 PM 65.3 °F 44.1 °F 46% 29.50 in 10.0 mi SW 24.2 mph 34.5 mph N/A   Scattered Clouds
12:55 PM 66.2 °F 44.2 °F 45% 29.50 in 10.0 mi SSW 25.3 mph 33.4 mph N/A   Clear
1:15 PM 67.6 °F 45.1 °F 44% 29.51 in 10.0 mi SW 21.9 mph 29.9 mph N/A   Scattered Clouds
1:35 PM 66.7 °F 45.5 °F 46% 29.52 in 10.0 mi SW 23.0 mph 33.4 mph N/A   Mostly Cloudy
1:55 PM 67.8 °F 45.5 °F 45% 29.53 in 10.0 mi SW 24.2 mph 32.2 mph N/A   Mostly Cloudy
2:15 PM 66.2 °F 45.3 °F 47% 29.54 in 10.0 mi WSW 27.6 mph 34.5 mph N/A   Scattered Clouds
2:35 PM 65.7 °F 45.3 °F 48% 29.55 in 10.0 mi WSW 21.9 mph 33.4 mph N/A   Scattered Clouds
2:55 PM 63.7 °F 44.4 °F 50% 29.57 in 10.0 mi WSW 21.9 mph 36.8 mph N/A   Mostly Cloudy
3:15 PM 62.6 °F 44.1 °F 51% 29.60 in 10.0 mi West 24.2 mph 35.7 mph N/A   Overcast
3:35 PM 60.8 °F 43.3 °F 53% 29.62 in 10.0 mi West 24.2 mph 35.7 mph N/A   Overcast
3:55 PM 58.8 °F 42.8 °F 55% 29.65 in 10.0 mi West 25.3 mph 34.5 mph N/A   Mostly Cloudy
4:15 PM 57.9 °F 40.8 °F 53% 29.67 in 10.0 mi West 25.3 mph 33.4 mph N/A   Overcast
4:35 PM 57.0 °F 40.8 °F 55% 29.69 in 10.0 mi West 23.0 mph 34.5 mph N/A   Mostly Cloudy
4:55 PM 55.4 °F 40.6 °F 58% 29.71 in 10.0 mi West 23.0 mph 32.2 mph N/A   Overcast
5:15 PM 54.7 °F 40.6 °F 59% 29.73 in 10.0 mi WNW 23.0 mph 29.9 mph N/A   Overcast
5:35 PM 54.0 °F 39.6 °F 58% 29.75 in 10.0 mi WNW 21.9 mph 34.5 mph N/A   Overcast
5:55 PM 54.1 °F 38.8 °F 56% 29.76 in 10.0 mi WNW 25.3 mph 38.0 mph N/A   Mostly Cloudy
6:15 PM 53.8 °F 38.7 °F 57% 29.78 in 10.0 mi WNW 23.0 mph 31.1 mph N/A   Scattered Clouds
6:35 PM 53.6 °F 39.0 °F 58% 29.78 in 10.0 mi WNW 25.3 mph 31.1 mph N/A   Scattered Clouds
6:55 PM 53.4 °F 38.8 °F 58% 29.79 in 10.0 mi West 12.7 mph 23.0 mph N/A   Clear
7:15 PM 52.3 °F 39.2 °F 61% 29.80 in 10.0 mi West 10.4 mph 16.1 mph N/A   Scattered Clouds
7:35 PM 51.4 °F 39.2 °F 63% 29.81 in 10.0 mi West 9.2 mph - N/A   Scattered Clouds
7:55 PM 52.3 °F 37.8 °F 58% 29.83 in 10.0 mi WNW 13.8 mph 20.7 mph N/A   Clear
8:15 PM 51.8 °F 37.4 °F 58% 29.84 in 10.0 mi West 8.1 mph - N/A   Clear
8:35 PM 49.6 °F 37.6 °F 63% 29.85 in 10.0 mi West 6.9 mph - N/A   Clear
8:55 PM 50.2 °F 38.1 °F 63% 29.85 in 10.0 mi WSW 5.8 mph - N/A   Clear
9:15 PM 49.8 °F 38.1 °F 64% 29.86 in 10.0 mi WSW 8.1 mph - N/A   Clear
9:35 PM 50.2 °F 37.8 °F 62% 29.86 in 10.0 mi West 9.2 mph - N/A   Clear
9:55 PM 50.4 °F 37.2 °F 61% 29.86 in 10.0 mi West 9.2 mph - N/A   Clear
10:15 PM 52.3 °F 35.8 °F 53% 29.88 in 10.0 mi West 10.4 mph - N/A   Clear
10:35 PM 51.1 °F 36.3 °F 57% 29.88 in 10.0 mi West 6.9 mph - N/A   Clear
10:55 PM 50.5 °F 36.5 °F 59% 29.89 in 10.0 mi WSW 9.2 mph - N/A   Clear
11:15 PM 50.9 °F 36.0 °F 57% 29.90 in 10.0 mi West 10.4 mph - N/A   Clear
11:35 PM 51.6 °F 35.1 °F 53% 29.91 in 10.0 mi West 13.8 mph - N/A   Clear
11:55 PM 51.6 °F 35.1 °F 53% 29.92 in 10.0 mi West 11.5 mph - N/A   Clear